STARLINK-35357, 65799

Orbit data source: Space-Track

STARLINK-35357, 65799 is a payload satellite owned by SpaceX/Seattle (US) in SSO that was launched on Fri, 26 Sep 2025 UTC via an FALCON 9 launch vehicle from the Air Force Western Test Range (AFWTR). Payload-class satellites include a variety of spacecraft equipped with specific instruments for various scientific and technological missions. These include communications satellites like Starlink; space stations such as the ISS; scientific satellites like the Hubble; Earth observation satellites from companies like Planet Labs, Umbra, and HawkEye 360; GPS; miniature CubeSats for education and research; and military/defense satellites.

Loading next visibility...
Identifier
65799, 2025-218J
Orbit
SSO
Country
Flag of USUS
Related business
Manufacturer
SpaceX/Seattle
Mission
Operational Commercial Communications
Bus & Motor
STARLINK V2MO, Unknown motor
Mass
575 kg wet, ~530 kg dry
Launch date (UTC)
2025-09-26 (2 months ago)
Launch vehicle
FALCON 9
Launch site
Air Force Western Test Range (AFWTR)
Object type
Payload
Rocket body
Debris
Shape & HBR
Box + 2 Pan, 17.7 m
Radar Cross Section
36.964 m²

Expand to show TLE details & history
Last TLE update: 15 hours ago

TLE from 15 hours ago
0 STARLINK-35357
1 65799U 25218J   25340.61691193  .00007609  00000-0  53115-3 0  9994
2 65799  97.6034 201.1936 0002280  89.1465 271.0023 15.05635364 10963
Epoch: 2025-12-06T14:48Z
TLE epoch observation values (Epoch: 2025-12-06T14:48:21.190Z)
Latitude
-0.00004°
Longitude
-96.53677°
Altitude
552.594 km
Speed
7.585 km/s
True Right ascension
13h 24m 46s
True Declination
0° 00' 00"
Sunlit
Object was in daylight at epoch
Visualization orbit readout
Latitude
Unknown
Longitude
Unknown
Altitude
Unknown
Speed
Unknown
Apparent Right ascension
Unknown
Apparent Declination
Unknown
Sunlit
N/A
Visualization observer readout
Local Sidereal Time
04:00:58
Azimuth
Unknown
Elevation
Unknown
Doppler factor
Unknown
Orbital elements
Apogee altitude
548.128 km
Perigee altitude
544.971 km
Semi-major axis
6,924.687 km
Eccentricity
0.00023
Inclination
97.6034°
RAAN
201.1936°
Arg. of periapsis
89.1465°
True anomaly
270.97618°
Mean anomaly
271.0023°
Eccentric anomaly
270.98924°
Mean motion
3.76654 °/min
Orbital period
95.58 mins
BSTAR
0.00053115
Loading maneuver chart data...
Computing Atmospheric mass density...
Loading historical data...
Loading historical data...
Loading historical data...
Loading historical data...
Loading historical data...
Loading historical data...
Loading historical data...

Documentation

Showing up to 5 results
|